Regional Weather Roundup
Issued by NWS

Home | Current Version | Previous Version | Text Only | Print | Product List | Glossary Off
Versions: 1 2 3 4 5 6 7 8 9 10 11 12 13 14 15 16 17 18 19 20 21 22 23 24 25 26 27 28 29 30 31 32 33 34 35 36 37 38 39 40 41 42 43 44 45 46 47 48 49 50

000
ASUS45 KBOI 170210
RWRID

IDAHO REGIONAL WEATHER ROUNDUP
NATIONAL WEATHER SERVICE BOISE ID
700 PM MST TUE JAN 16 2018

NOTE: "FAIR" INDICATES FEW OR NO CLOUDS BELOW 12000 FEET
WITH NO SIGNIFICANT WEATHER AND/OR OBSTRUCTIONS TO VISIBILITY

IDZ012-014-170300-
SOUTHWEST IDAHO


CITY           SKY/WX    TMP DP  RH WIND       PRES   REMARKS
BOISE          CLOUDY    41  36  82 NW3       30.35F
CALDWELL       MOCLDY    39  36  89 W3        30.37F
MOUNTAIN HOME  MOCLDY    38  38 100 W7        30.35R WCI  33
$$

IDZ016-017-170300-
SOUTHCENTRAL IDAHO


CITY           SKY/WX    TMP DP  RH WIND       PRES   REMARKS
BURLEY         CLOUDY    39  31  72 VRB6      30.30S WCI  35
JEROME         CLOUDY    36  32  85 CALM      30.32R
TWIN FALLS     CLOUDY    39  36  89 S8        30.32R WCI  33
$$

IDZ019>023-170300-
SOUTHEAST IDAHO


CITY           SKY/WX    TMP DP  RH WIND       PRES   REMARKS
IDAHO FALLS    CLOUDY    32  26  78 N6        30.33R WCI  26
POCATELLO      CLOUDY    35  28  75 CALM      30.32S
REXBURG        PTCLDY    25  22  88 NE5       30.32R WCI  19
$$

IDZ006-010-011-018-031-032-170300-
CENTRAL IDAHO MOUNTAINS


CITY           SKY/WX    TMP DP  RH WIND       PRES   REMARKS
MCCALL         CLOUDY    32  31  96 E3        30.30F
HAILEY         PTCLDY    34  27  75 SE3       30.31S
STANLEY          N/A     17  15  92 S6        30.31R WCI   9
SALMON         CLOUDY    28  24  85 E3        30.37S
CHALLIS        PTCLDY    22  18  85 S3        30.33R
$$

IDZ002-004-006-007-026-170300-
NORTHERN IDAHO


CITY           SKY/WX    TMP DP  RH WIND       PRES   REMARKS
LEWISTON       PTCLDY    40  38  93 E7        30.35R
LOWELL         NOT AVBL
COEUR D`ALENE  CLOUDY    35  33  92 CALM      30.32S
MULLAN PASS    CLOUDY    28  28 100 SW8       30.24R WCI  20
$$



USA.gov is the U.S. government's official web portal to all federal, state and local government web resources and services.